Wind_Speed
32 32 31 31 31 31 31 31 31 30 30 31 30 31 31 30 30 29 28 28 28 28 29 28 28 28 28 28 28 27 27 27 27 27 27 27 27 27 27 28 28 27 26
34 34 33 33 33 34 33 33 33 33 33 33 33 33 33 33 33 32 32 31 30 30 30 30 30 30 30 30 30 30 29 29 29 29 29 29 29 29 29 28 29 28 28
35 35 35 35 35 36 36 35 35 35 35 36 36 36 36 36 36 35 35 34 34 33 32 32 32 32 32 32 32 32 31 31 31 31 31 31 30 31 30 30 30 30 30
37 37 37 36 37 37 37 37 37 37 37 37 38 38 38 38 38 37 37 37 36 35 34 34 34 33 34 34 35 34 34 33 33 33 32 32 32 32 32 32 32 32 32
39 39 38 38 38 38 38 38 38 38 38 39 39 40 39 40 40 39 39 38 38 37 37 37 36 35 35 35 36 36 36 36 35 34 34 34 34 33 33 33 34 34 34
40 40 40 39 39 39 39 39 39 39 39 39 40 40 40 40 40 40 40 39 39 39 39 39 39 38 37 37 37 37 38 37 36 36 36 36 36 36 35 35 36 36 36
41 41 41 40 40 40 40 40 40 40 40 41 41 41 41 41 41 41 41 41 40 41 41 41 40 40 39 38 38 39 39 39 39 39 38 38 38 38 38 38 38 38 38
42 42 42 41 41 41 41 40 40 41 41 41 41 42 42 42 42 42 42 42 42 42 42 42 42 42 41 41 41 41 41 41 41 41 41 40 40 40 40 40 41 41 41
42 42 42 41 41 41 41 40 41 41 41 41 41 42 42 43 44 44 44 44 44 44 44 44 44 44 43 43 43 43 43 43 43 43 43 43 43 43 43 43 43 43 43
42 42 42 42 42 42 42 42 42 42 42 42 42 42 43 44 44 45 44 45 46 45 45 46 46 45 45 45 45 46 46 46 46 46 45 46 45 45 45 45 45 45 46
42 43 43 44 44 44 44 43 43 44 44 43 43 43 44 45 45 45 45 45 46 46 47 47 47 47 47 47 47 47 47 47 47 48 48 48 48 48 48 48 48 47 47
43 44 44 45 44 44 44 44 44 45 45 44 44 44 45 46 46 47 47 47 47 47 47 48 48 48 48 49 49 49 49 49 49 49 50 50 50 50 50 50 50 49 48
43 44 44 44 44 43 43 44 44 45 45 45 44 45 46 46 47 47 47 47 48 48 49 49 49 49 49 50 50 51 51 51 52 52 52 52 52 52 51 51 50 50 49
44 44 44 44 44 44 44 45 45 45 46 45 45 45 46 47 47 47 47 47 48 48 49 50 50 50 50 51 52 52 52 52 53 53 53 53 53 53 52 52 51 50 50
44 44 44 45 45 45 46 46 45 45 46 46 46 47 47 47 48 48 48 49 49 49 49 49 51 51 52 52 52 53 53 53 53 53 53 53 53 53 53 52 52 52 51
44 44 44 45 45 46 46 46 46 46 47 47 47 48 48 48 49 49 50 50 50 50 50 50 52 52 53 53 53 54 54 54 54 54 54 53 53 53 54 53 53 53 54
44 44 45 45 45 45 46 46 47 47 48 48 48 48 48 49 49 50 50 50 51 51 52 52 53 53 54 53 53 54 54 55 55 55 55 55 55 55 55 55 55 55 56
44 45 45 45 46 46 46 46 47 48 48 49 49 49 49 50 49 50 50 50 50 51 52 53 53 53 54 54 54 55 55 56 56 56 57 57 57 57 57 57 57 58 57
45 45 45 45 46 46 47 47 47 48 49 49 49 49 49 50 50 50 50 49 49 50 51 52 52 53 54 55 55 55 56 57 58 58 59 59 59 58 59 58 58 58 58
45 45 45 45 46 46 47 47 47 48 48 49 49 49 49 49 50 50 50 49 49 50 51 52 52 53 54 55 56 56 56 57 58 59 60 60 59 59 59 59 59 59 59
46 45 45 45 46 46 45 45 46 47 48 48 48 48 49 49 49 49 49 49 50 51 51 52 53 54 54 55 56 56 57 57 58 59 59 59 60 59 60 60 60 60 60
44 44 44 44 45 45 44 44 45 46 46 47 47 48 49 49 49 50 50 51 51 51 51 52 52 53 53 55 55 56 57 57 57 58 59 59 60 60 60 60 60 60 59
43 43 44 44 44 44 45 45 45 46 46 46 47 47 48 49 49 50 51 51 51 52 52 52 52 52 53 54 54 55 55 56 57 58 58 58 59 59 59 59 58 59 59
43 43 44 44 44 44 44 45 45 46 46 46 46 47 48 48 49 50 50 50 50 51 51 52 52 52 52 53 54 54 55 54 55 55 56 56 56 57 57 56 57 57 57
42 43 43 44 44 44 44 45 45 46 45 45 45 46 47 48 49 50 50 49 49 49 50 51 51 51 51 51 52 52 52 52 52 52 53 53 53 54 54 53 54 55 56
41 42 42 43 43 43 44 44 45 44 45 45 46 46 47 47 48 48 49 50 50 49 49 49 50 49 49 49 49 49 50 50 50 49 50 50 51 52 52 51 53 54 55
Wind_Direction
261 260 259 259 259 259 259 258 259 258 256 256 256 257 257 257 256 256 255 256 256 257 257 257 257 257 256 256 257 257 258 259 260 261 262 262 262 262 262 262 261 261 261
261 260 260 259 259 259 258 258 258 258 256 256 256 257 257 257 257 257 257 257 257 258 258 257 258 257 257 257 257 257 258 259 260 261 262 263 263 262 263 263 263 263 262
261 261 260 260 259 259 258 258 258 258 257 257 256 257 257 257 257 257 257 257 258 258 258 259 259 258 258 258 258 258 259 259 260 261 261 262 263 263 263 263 264 263 264
260 260 260 260 261 260 259 259 259 258 257 257 257 257 258 257 257 257 257 257 257 257 259 259 259 259 260 260 259 259 259 260 260 261 262 263 263 264 263 263 264 264 264
260 260 260 261 261 261 260 260 259 258 258 258 258 258 258 258 256 256 257 257 258 258 258 260 260 260 261 261 261 260 260 261 261 261 262 263 263 264 265 265 264 264 265
260 260 260 260 261 261 261 261 260 259 258 258 258 258 258 257 256 256 257 258 258 258 259 259 260 260 260 261 262 261 261 261 262 263 263 263 264 264 264 265 265 264 265
261 260 260 260 260 260 261 261 261 260 259 259 259 258 257 257 256 256 257 258 259 258 258 259 259 260 261 261 262 262 262 262 262 263 264 264 264 265 265 265 265 264 264
261 260 259 259 259 260 261 261 260 260 259 259 259 258 257 257 257 257 258 258 258 258 258 259 259 260 261 261 261 262 262 262 263 264 264 264 264 265 265 266 267 267 266
262 260 259 259 260 260 261 261 260 259 258 259 259 259 258 257 258 258 259 258 258 258 258 259 259 260 261 261 262 262 262 263 263 264 264 264 265 266 267 268 269 268 268
261 260 259 259 260 261 261 261 260 259 258 259 260 260 258 258 259 259 259 259 258 258 258 259 259 259 260 261 262 262 262 263 263 264 264 265 265 266 268 268 269 269 269
261 260 260 260 260 261 261 261 260 259 259 259 261 260 259 258 259 259 260 260 259 259 258 258 259 260 261 261 262 262 263 263 263 264 264 265 265 267 268 268 268 269 268
261 261 261 260 261 261 261 261 261 260 260 260 261 261 260 259 260 260 260 260 260 260 259 259 260 261 261 261 262 262 263 264 265 265 265 266 266 267 267 268 268 267 267
261 261 261 260 260 260 261 261 261 261 261 261 262 262 261 260 260 261 261 261 260 260 260 260 261 261 262 262 263 263 264 265 266 266 266 266 267 267 267 267 267 266 266
261 261 260 259 259 260 261 261 261 262 262 262 262 262 261 261 261 261 261 261 260 261 261 262 262 262 263 263 264 265 266 266 266 266 266 266 267 266 267 266 266 265 265
261 261 261 260 260 261 261 261 262 262 263 262 262 262 262 262 261 262 261 261 261 261 262 262 262 263 264 264 265 265 265 266 266 266 266 266 266 266 266 266 265 265 265
259 260 261 261 260 261 260 261 262 263 263 263 263 263 263 262 261 261 262 262 262 263 263 263 263 263 264 265 265 265 265 266 266 266 266 266 265 265 266 265 265 265 265
259 259 260 260 260 261 261 261 262 263 264 264 264 264 264 263 262 262 263 263 263 263 264 264 264 264 264 265 265 265 265 266 266 266 266 266 266 266 266 266 266 266 266
258 259 260 261 260 261 261 261 262 263 263 263 264 264 264 264 263 263 263 263 263 264 265 265 265 265 265 265 265 266 266 266 266 266 267 267 267 267 267 267 267 266 267
259 259 259 261 261 262 262 262 262 263 263 263 263 264 264 264 263 263 263 263 265 265 265 266 266 267 266 267 267 267 267 267 267 267 267 267 267 267 267 267 267 267 267
259 259 259 261 262 262 262 263 263 263 263 264 264 264 264 264 264 263 264 264 266 267 267 267 268 268 268 268 268 268 268 268 268 268 267 267 267 267 267 268 268 268 268
260 260 260 261 262 263 263 264 264 264 263 263 264 264 264 264 264 263 264 265 267 268 268 268 269 269 270 270 269 269 268 268 268 268 268 268 268 268 267 267 267 267 268
260 261 261 262 263 263 264 264 264 264 263 263 264 263 263 263 264 264 264 267 268 269 269 269 269 270 271 271 271 270 269 269 269 269 269 268 268 268 267 267 267 266 267
260 260 261 263 263 263 263 264 264 264 263 263 264 264 264 264 264 265 265 267 269 270 270 269 270 271 271 271 272 271 271 270 270 270 269 269 268 268 267 266 266 266 266
261 261 261 262 262 262 262 263 263 264 264 264 265 265 266 265 265 265 265 267 269 270 270 270 272 273 273 273 273 272 271 271 271 271 270 270 268 267 266 266 266 266 266
262 262 262 262 262 262 262 263 263 264 265 266 266 267 268 268 267 267 266 268 269 269 270 271 272 273 274 275 274 272 271 271 271 270 270 269 268 267 266 265 266 266 265
263 263 263 263 263 263 263 264 264 264 265 266 267 268 269 270 269 268 268 268 269 269 270 271 272 272 273 274 274 272 272 271 270 269 269 269 268 267 265 265 266 266 266
Height
5770 5771 5772 5773 5774 5775 5776 5777 5778 5779 5780 5781 5782 5784 5785 5787 5788 5789 5790 5792 5793 5794 5795 5796 5797 5798 5799 5800 5801 5802 5802 5803 5804 5805 5805 5806 5806 5806 5807 5807 5808 5809 5809
5762 5763 5764 5765 5766 5767 5768 5769 5770 5771 5772 5774 5775 5776 5777 5779 5780 5782 5783 5785 5786 5787 5788 5789 5790 5791 5792 5793 5794 5795 5796 5797 5797 5798 5799 5799 5800 5800 5800 5801 5802 5803 5803
5753 5754 5755 5756 5757 5758 5759 5760 5761 5762 5764 5765 5766 5767 5769 5770 5772 5774 5775 5777 5778 5779 5780 5781 5782 5784 5785 5786 5787 5788 5789 5790 5791 5791 5792 5792 5793 5794 5794 5794 5795 5796 5796
5744 5745 5746 5746 5747 5748 5749 5750 5751 5753 5754 5755 5757 5758 5760 5761 5763 5764 5766 5768 5769 5771 5772 5773 5775 5775 5777 5778 5779 5780 5781 5782 5783 5784 5784 5785 5786 5786 5787 5787 5788 5788 5789
5734 5735 5736 5736 5737 5738 5739 5740 5741 5743 5744 5745 5747 5748 5750 5751 5753 5755 5757 5758 5760 5761 5763 5764 5766 5767 5768 5769 5770 5771 5772 5774 5775 5776 5776 5777 5778 5778 5779 5779 5780 5781 5781
5723 5724 5725 5726 5727 5728 5729 5730 5731 5733 5734 5735 5737 5738 5739 5741 5743 5745 5747 5748 5750 5751 5753 5755 5756 5758 5759 5760 5761 5762 5764 5765 5765 5767 5768 5768 5769 5770 5770 5771 5771 5772 5772
5712 5713 5714 5715 5717 5718 5719 5720 5721 5722 5723 5725 5726 5728 5729 5731 5733 5735 5737 5739 5740 5742 5743 5745 5746 5748 5749 5750 5751 5753 5754 5755 5756 5757 5758 5759 5760 5760 5761 5761 5762 5762 5763
5701 5702 5703 5705 5706 5707 5708 5709 5710 5711 5712 5714 5715 5716 5718 5721 5722 5724 5726 5728 5730 5731 5732 5734 5735 5737 5738 5740 5741 5743 5744 5745 5746 5747 5748 5749 5750 5750 5751 5751 5752 5752 5752
5690 5691 5692 5694 5695 5696 5697 5698 5700 5701 5702 5703 5704 5706 5707 5709 5711 5714 5715 5717 5718 5719 5721 5722 5724 5725 5727 5729 5730 5732 5733 5734 5735 5736 5737 5738 5739 5739 5740 5741 5741 5741 5741
5679 5680 5681 5682 5684 5685 5686 5688 5689 5690 5691 5693 5694 5695 5697 5698 5700 5702 5704 5705 5706 5708 5709 5711 5712 5714 5715 5717 5718 5720 5721 5722 5723 5724 5725 5726 5727 5728 5728 5729 5729 5729 5730
5668 5668 5669 5671 5672 5674 5675 5676 5677 5679 5680 5681 5683 5684 5685 5687 5688 5690 5691 5693 5694 5696 5697 5698 5700 5702 5703 5704 5706 5707 5709 5710 5711 5712 5713 5714 5715 5715 5716 5716 5717 5717 5717
5656 5657 5658 5659 5661 5662 5663 5664 5666 5667 5668 5670 5671 5672 5674 5675 5676 5678 5679 5681 5682 5684 5685 5686 5687 5689 5690 5692 5693 5694 5696 5697 5698 5699 5700 5701 5701 5702 5703 5703 5703 5704 5704
5645 5646 5646 5648 5649 5650 5651 5653 5654 5656 5657 5658 5659 5661 5662 5663 5664 5666 5667 5669 5670 5671 5672 5674 5675 5676 5677 5678 5680 5680 5682 5683 5684 5685 5686 5687 5688 5688 5689 5689 5689 5690 5690
5633 5634 5634 5636 5637 5638 5640 5641 5643 5644 5645 5646 5647 5648 5650 5651 5652 5653 5655 5656 5658 5659 5660 5661 5661 5662 5664 5665 5666 5666 5667 5669 5669 5671 5672 5673 5673 5674 5674 5675 5675 5676 5676
5622 5622 5623 5624 5625 5627 5628 5629 5631 5632 5633 5634 5635 5636 5637 5638 5639 5640 5641 5643 5645 5646 5648 5648 5648 5649 5649 5650 5651 5652 5653 5654 5654 5656 5657 5657 5658 5659 5660 5660 5661 5662 5662
5609 5610 5611 5612 5614 5615 5616 5617 5619 5620 5621 5622 5622 5624 5624 5625 5626 5627 5628 5629 5631 5632 5633 5634 5634 5635 5635 5636 5636 5637 5638 5639 5640 5641 5642 5642 5643 5644 5645 5646 5646 5647 5648
5597 5598 5599 5601 5602 5603 5604 5605 5606 5607 5608 5609 5610 5611 5611 5612 5613 5614 5615 5616 5617 5617 5619 5620 5619 5620 5620 5621 5621 5622 5623 5624 5625 5625 5626 5627 5628 5629 5629 5630 5631 5631 5632
5586 5587 5588 5588 5589 5590 5591 5593 5594 5594 5595 5596 5597 5598 5598 5599 5600 5600 5601 5602 5603 5603 5604 5605 5605 5605 5605 5606 5606 5607 5608 5608 5609 5610 5610 5611 5612 5612 5613 5614 5614 5615 5615
5574 5574 5575 5577 5578 5578 5579 5580 5581 5581 5582 5583 5584 5584 5585 5585 5586 5587 5587 5588 5589 5589 5589 5590 5590 5590 5590 5590 5591 5592 5592 5593 5593 5594 5594 5595 5595 5595 5596 5596 5597 5598 5598
5561 5562 5563 5564 5565 5565 5566 5567 5567 5568 5569 5570 5570 5571 5571 5572 5573 5573 5574 5575 5575 5575 5575 5575 5576 5575 5575 5575 5575 5576 5577 5577 5577 5576 5577 5577 5578 5578 5578 5579 5580 5581 5581
5549 5550 5551 5551 5552 5553 5554 5554 5554 5555 5556 5556 5557 5557 5558 5558 5559 5559 5560 5561 5561 5561 5561 5560 5561 5561 5560 5560 5560 5560 5560 5560 5560 5559 5560 5560 5560 5561 5560 5561 5561 5562 5562
5537 5538 5538 5539 5540 5540 5541 5541 5541 5542 5542 5543 5544 5544 5544 5545 5545 5545 5546 5546 5547 5547 5546 5546 5546 5546 5545 5544 5543 5543 5543 5543 5545 5544 5543 5543 5542 5543 5542 5543 5543 5544 5544
5525 5525 5526 5527 5527 5528 5528 5528 5528 5528 5529 5530 5530 5531 5531 5531 5531 5532 5532 5532 5532 5531 5532 5532 5531 5530 5529 5529 5528 5527 5526 5526 5526 5526 5525 5525 5525 5525 5525 5525 5525 5526 5526
5512 5513 5513 5514 5515 5515 5515 5515 5515 5516 5516 5517 5517 5517 5517 5517 5518 5518 5518 5518 5517 5517 5517 5517 5516 5515 5513 5512 5511 5510 5509 5509 5509 5508 5507 5508 5508 5508 5508 5508 5508 5508 5509
5500 5500 5501 5501 5502 5502 5502 5503 5503 5503 5503 5504 5504 5504 5504 5504 5504 5504 5504 5504 5503 5502 5501 5501 5500 5499 5498 5496 5495 5494 5493 5493 5493 5493 5491 5491 5491 5491 5492 5492 5491 5491 5491
5487 5488 5488 5489 5489 5490 5490 5490 5490 5490 5491 5491 5491 5491 5490 5490 5489 5489 5489 5488 5488 5488 5487 5486 5485 5484 5483 5481 5479 5478 5478 5477 5477 5478 5476 5475 5474 5474 5477 5477 5475 5474 5474